Location: Haulchin
(50.3172°N, 3.4360°E)
Time: 20:10:43
(UTC+00:00)

Cosmos 2360 Rocket - Pass Details

Date: 23 May 2024
Orbit: 832 x 846 km, 71.0° (Epoch: 14 June)

Event Time Altitude Azimuth Distance (km) Brightness Sun altitude
Rises 00:12:37 0° 332° (NNW) 3,416 6.3 -18.7°
Reaches altitude 10° 00:15:36 10° 347° (NNW) 2,479 5.7 -18.7°
Maximum altitude 00:20:05 23° 39° (NE) 1,720 4.5 -18.6°
Drops below altitude 10° 00:24:34 10° 92° (E) 2,471 4.7 -18.5°
Sets 00:27:31 0° 106° (ESE) 3,403 5.3 -18.4°
